Regional Weather Roundup
Issued by NWS

Home | Current Version | Previous Version | Text Only | Print | Product List | Glossary Off
Versions: 1 2 3 4 5 6 7 8 9 10 11 12 13 14 15 16 17 18 19 20 21 22 23 24 25 26 27 28 29 30 31 32 33 34 35 36 37 38 39 40 41 42 43 44 45 46 47 48 49 50

000
ASUS43 KDTX 261710
RWRMI
MICHIGAN HOURLY REGIONAL WEATHER ROUNDUP
NATIONAL WEATHER SERVICE DETROIT/PONTIAC MI
1200 PM EST FRI DEC 26 2014

NOTE: "FAIR" INDICATES FEW OR NO CLOUDS BELOW 12,000 FEET WITH NO
SIGNIFICANT WEATHER AND/OR OBSTRUCTION TO VISIBILITY.

MIZ047>049-052>055-059>063-066>070-074>076-081>083-261800-
SOUTHEAST LOWER MICHIGAN

CITY           SKY/WX    TMP DP  RH WIND       PRES   REMARKS
ADRIAN         MOSUNNY   40  34  79 SW14      30.13F
ALMA           SUNNY     40  35  83 SW7       30.05F
ANN ARBOR      SUNNY     42  35  76 SW12      30.11F
BAD AXE        PTSUNNY   39  36  86 SW9       30.07F
DETROIT CITY   SUNNY     45  34  65 SW10      30.11F
DETROIT        MOSUNNY   44  34  67 SW15      30.12F
FLINT          MOSUNNY   44  34  67 SW14      30.08F
GROSSE ILE     SUNNY     41  36  81 S12       30.12F
HILLSDALE      SUNNY     42  37  81 SW9       30.09F
HOWELL         SUNNY     42  35  75 SW9       30.07F

CITY           SKY/WX    TMP DP  RH WIND       PRES   REMARKS
JACKSON        SUNNY     43  34  70 SW14      30.07F
LAMBERTVILLE   SUNNY     45  34  65 SW9       30.13F
LANSING        SUNNY     44  35  70 SW10      30.06F
LAPEER         NOT AVBL
MASON          SUNNY     42  34  73 SW8       30.07F
MONROE         SUNNY     45  36  70 SW9       30.11F
MT. CLEMENS    MOSUNNY   44  36  74 SW10      30.09F
PONTIAC        MOSUNNY   41  33  73 SW9       30.08F
PORT HOPE        N/A     41  33  73 SW9       30.04F
PORT HURON     MOSUNNY   43  36  75 S8        30.11F
TRI CITIES     MOSUNNY   42  34  73 SW12      30.06F
YPSILANTI      SUNNY     45  34  65 SW16      30.12F
$$
MIZ043>046-050>051-056>058-064>065-071>073-077>080-261800-
SOUTHWEST LOWER MICHIGAN

CITY           SKY/WX    TMP DP  RH WIND       PRES   REMARKS
BATTLE CREEK   SUNNY     44  34  67 SW14      30.06F
BENTON HARBOR  SUNNY     45  36  70 S7        30.05F
BIG RAPIDS     CLOUDY    38  36  92 SW8       30.01F
COLDWATER      SUNNY     43  35  73 SW13      30.08F
HOLLAND        MOSUNNY   45  35  68 SW20      30.05F
GRAND RAPIDS   MOSUNNY   43  35  73 SW14G21   30.05F
KALAMAZOO      SUNNY     44  35  70 SW9       30.07F
MARSHALL       SUNNY     42  34  73 SW13G23   30.07F
MUSKEGON       PTSUNNY   44  37  76 S17G23    30.03F
$$
MIZ016>042-261800-
NORTHERN LOWER MICHIGAN

CITY           SKY/WX    TMP DP  RH WIND       PRES   REMARKS
ALPENA         CLOUDY    37  33  85 SW6       30.03F
BEAVER ISLAND  CLOUDY    39  37  92 S5        29.99F
BELLAIRE       CLOUDY    40  35  83 S5        30.01F
CADILLAC       CLOUDY    35  33  92 S6        29.98F
CHARLEVOIX     CLOUDY    39  35  87 S6        30.02F
FRANKFORT      CLOUDY    39  37  90 SE5       29.99F
GAYLORD        CLOUDY    33  33 100 S8        29.99F FOG
GRAYLING       CLOUDY    36  34  93 S5        30.01F FOG
HARBOR SPRINGS CLOUDY    38  34  85 CALM      30.00F
HOUGHTON LAKE  CLOUDY    35  32  88 S7        30.01F
MANISTEE       CLOUDY    41  36  81 S6        30.00F
OSCODA         CLOUDY    39  33  81 SW8       30.04F
PELLSTON       CLOUDY    39  34  82 SW7       30.00F
TRAVERSE CITY  CLOUDY    41  35  79 VRB5      29.99F
$$
MIZ007>008-015-261800-
EASTERN UPPER MICHIGAN

CITY           SKY/WX    TMP DP  RH WIND       PRES   REMARKS
KINROSS        CLOUDY    36  36 100 NE3       29.98F
MACKINAC ISLAN CLOUDY    38  37  97 S6        29.99S
NEWBERRY       CLOUDY    33  32  99 W3        29.98S FOG
S. S. MARIE    CLOUDY    35  32  88 E3        29.97F FOG
$$
MIZ004>006-011>014-085-261800-
CENTRAL UPPER MICHIGAN

CITY           SKY/WX    TMP DP  RH WIND       PRES   REMARKS
MANISTIQUE     CLOUDY    34  34  99 N3        29.98F FOG
ESCANABA       CLOUDY    34  30  86 N3        29.98F
MENOMINEE      CLOUDY    36  34  93 CALM      29.97F
SAWYER-GWINN   CLOUDY    30  28  93 CALM      29.97S FOG
$$
MIZ001>003-009>011-084-261800-
WESTERN UPPER MICHIGAN

CITY           SKY/WX    TMP DP  RH WIND       PRES   REMARKS
IRON MOUNTAIN  CLOUDY    32  30  92 N3        29.95F
HOUGHTON       CLOUDY    33  29  85 N3        29.97S
COPPER HARBOR    N/A     36  27  69 NE10      29.99R
IRONWOOD       CLOUDY    30  30 100 N6        29.96F
$$

ABBREVIATIONS USED IN REMARKS
   TC - TEMPERATURE IN CELSIUS
  WCI - WIND CHILL INDEX
   HX - HEAT INDEX
  VSB - VISIBILITY



USA.gov is the U.S. government's official web portal to all federal, state and local government web resources and services.